Selinsgrove, PA

11:38 AM EST on December 08, 2016 (GMT -0500)
Penn Valley

Weather History for KSEG - November, 2013

Change the Weather History Date:

Monday, November 25, 2013

  Actual Average (KIPT) Record (KIPT)
Temperature  
Mean Temperature 24 °F -  
Max Temperature 34 °F 45 °F 67 °F (1979)
Min Temperature 15 °F 30 °F 14 °F (1956)
Degree Days  
Heating Degree Days 40    
Moisture  
Dew Point 9 °F    
Average Humidity 51    
Maximum Humidity 84    
Minimum Humidity 32    
Precipitation  
Precipitation 0.00 in - - ()
Sea Level Pressure  
Sea Level Pressure 30.42 in    
Wind  
Wind Speed 4 mph (SW)    
Max Wind Speed 9 mph    
Max Gust Speed -    
Visibility 10 miles    
Events Snow    
Averages and records for this station are not official NWS values.
T = Trace of Precipitation, MM = Missing Value Source: NWS Daily Summary

Daily Weather History Graph

Daily Weather History Graph

Search for Another Location

Airport or City:

Trip Planner

Search our weather history database for the weather conditions in past years. The results will help you decide how hot, cold, wet, or windy it might be!

Date:

Astronomy

Nov. 25, 2013 Rise Set
Actual Time 7:06 AM EST 4:42 PM EST
Civil Twilight 6:36 AM EST 5:12 PM EST
Nautical Twilight 6:02 AM EST 5:46 PM EST
Astronomical Twilight 5:29 AM EST 6:19 PM EST
Moon No Moon Rise 12:20 PM EST (11/25)
Length of Visible Light 10h 36m
Length of Day
9h 36m
Waning Gibbous, 51% of the Moon is Illuminated
Nov 25
Waning Gibbous
Nov 25
Last Quarter
Dec 2
New
Dec 9
First Quarter
Dec 17
Full

Hourly Weather History & Observations

Time (EST) Temp. Windchill Dew Point Humidity Pressure Visibility Wind Dir Wind Speed Gust Speed Precip Events Conditions
12:53 AM 17.1 °F - 10.0 °F 74% 30.45 in 10.0 mi Calm Calm - N/A   Clear
1:53 AM 15.1 °F - 10.0 °F 80% 30.46 in 10.0 mi Calm Calm - N/A   Clear
2:53 AM 19.9 °F 12.1 °F 12.0 °F 71% 30.48 in 10.0 mi WSW 5.8 mph - N/A   Clear
3:53 AM 19.9 °F 12.1 °F 10.9 °F 68% 30.50 in 10.0 mi West 5.8 mph - N/A   Clear
4:53 AM 18.0 °F 12.7 °F 10.0 °F 71% 30.50 in 10.0 mi Variable 3.5 mph - N/A   Clear
5:53 AM 19.0 °F 12.3 °F 10.0 °F 68% 30.51 in 10.0 mi WNW 4.6 mph - N/A   Clear
6:53 AM 15.1 °F - 10.9 °F 84% 30.51 in 10.0 mi Calm Calm - N/A   Clear
7:53 AM 19.0 °F - 12.9 °F 77% 30.52 in 10.0 mi Calm Calm - N/A   Clear
8:53 AM 24.1 °F 19.7 °F 10.9 °F 57% 30.52 in 10.0 mi SW 3.5 mph - N/A   Clear
9:53 AM 27.0 °F 19.5 °F 10.0 °F 49% 30.52 in 10.0 mi West 6.9 mph - N/A   Clear
10:53 AM 30.0 °F 23.2 °F 9.0 °F 41% 30.49 in 10.0 mi Variable 6.9 mph - N/A   Clear
11:53 AM 30.0 °F - 9.0 °F 41% 30.46 in 10.0 mi North - - N/A   Clear
12:53 PM 34.0 °F 27.2 °F 7.0 °F 32% 30.42 in 3.0 mi SSW 8.1 mph - N/A   Haze
1:53 PM 33.1 °F 26.1 °F 7.0 °F 34% 30.39 in 10.0 mi SSW 8.1 mph - N/A   Clear
2:53 PM 30.9 °F 25.2 °F 8.1 °F 38% 30.37 in 10.0 mi Variable 5.8 mph - N/A   Clear
3:53 PM 32.0 °F 24.2 °F 7.0 °F 35% 30.36 in 8.0 mi SSW 9.2 mph - N/A   Clear
4:53 PM 30.9 °F 24.3 °F 9.0 °F 40% 30.35 in 9.0 mi South 6.9 mph - 0.00 in Snow Light Snow
5:53 PM 30.9 °F 26.2 °F 9.0 °F 40% 30.35 in 10.0 mi Variable 4.6 mph - 0.00 in   Partly Cloudy
6:53 PM 32.0 °F 26.4 °F 10.0 °F 40% 30.35 in 10.0 mi SSW 5.8 mph - N/A   Clear
7:53 PM 32.0 °F 27.5 °F 9.0 °F 38% 30.33 in 10.0 mi SSW 4.6 mph - N/A   Clear
8:53 PM 33.1 °F 27.7 °F 8.1 °F 35% 30.31 in 10.0 mi South 5.8 mph - N/A   Overcast
9:53 PM 33.1 °F 26.9 °F 8.1 °F 35% 30.29 in 10.0 mi SSW 6.9 mph - N/A   Overcast
10:53 PM 33.1 °F 27.7 °F 10.0 °F 38% 30.30 in 10.0 mi SSW 5.8 mph - N/A   Overcast
11:53 PM 33.1 °F 26.9 °F 10.0 °F 38% 30.30 in 10.0 mi SSW 6.9 mph - N/A   Overcast